Location: Chuathbaluk
(61.5726°N, 159.2454°W)
Time: 13:29:57
(UTC+00:00)

DELFI C3 - Pass Details

Date: 22 January 2021
Orbit: 531 x 550 km, 97.4° (Epoch: 04 March)

Event Time Altitude Azimuth Distance (km) Brightness Sun altitude
Exits shadow 04:22:55 23° 58° (ENE) 1,194 ? -14.2°
Maximum altitude 04:23:04 23° 54° (NE) 1,192 ? -14.2°
Drops below altitude 10° 04:26:15 10° 1° (N) 1,844 ? -14.6°
Sets 04:28:41 0° 347° (NNW) 2,744 ? -14.9°
